Location: Sungai Laei
(2.6000°N, 113.7167°E)
Time: 13:43:30
(UTC+00:00)

TSX-5 - Pass Details

Date: 22 May 2022
Orbit: 399 x 1298 km, 68.9° (Epoch: 06 July)

Event Time Altitude Azimuth Distance (km) Brightness Sun altitude
Exits shadow 21:16:58 - 188° (S) 1,841 6.2 -14.2°
Reaches altitude 10° 21:17:32 10° 186° (S) 1,604 5.9 -14.1°
Maximum altitude 21:20:54 53° 108° (ESE) 521 4.0 -13.3°
Drops below altitude 10° 21:23:56 10° 30° (NNE) 1,445 6.8 -12.6°
Sets 21:25:54 0° 25° (NNE) 2,292 7.8 -12.1°
